STARLINK-1595 (46159 NORAD) Tracking and Keplerian Element Data

This shows tracking and keplerian element data for the satellite.

Feedback or suggestion? Click here.




ElementValue
Catalog46159
NameSTARLINK-1595
Epoch Orbit180
Epoch Day335.91670139
Epoch Year2020
RAAN317.2715
Inclination52.9967
Eccentricity0.0001708
Argument of Perigee65.811
Mean Anonmoly59.9107
Mean Motion15.05582104
Decay Rate0.00029802
L11 46159U 20057AU 20335.91670139 .00029802 00000-0 20558-2 0 9991
L22 46159 52.9967 317.2715 0001708 65.8110 59.9107 15.05582104 1809

Live tracking and technical data element details for STARLINK-1595 (NORAD 46159). STARLINK-1595 can be tracked NOW for your location showing map with azimuth and elevation plus other details from your city location.

Track the satellite on the map from your city or location and see movement details for azimuth, elevation, latitude, longitude, range, height, and movement on the map or in text.







IsCatalogInMostPopularTable: catalog: 46159, numindb: 19
Update: records affected: 1



GetName: 46159 STARLINK-1595

Hit Count: updated at: Wed, 02 Dec 2020 06:09:32 GMT